Погода в Кудымкаре

Погода в Кудымкаре : погода сейчас, прогноз погоды и архив. Всё, что Вы хотите узнать о погоде в Кудымкаре!

Хотите узнать прогноз погоды в Кудымкаре? Тогда Вам сюда: Погода в Кудымкаре

Поиск расширенной информации на нашем сайте:

Другие новости

Новости СМИ2

Главная страница сайта

Новости сайта

03.07.2017

Напоминаем, что на нашем специализированном сайте Метеоцентр.Азия вы можете получить высокодетализированные автоматические прогнозы погоды по пунктам России, СНГ и мира в авиационном формате (включающие направление и скорость ветра, видимость, явления погоды, количество и форму облачности, нижнюю и верхнюю границу облачности).

Рекомендуем: Все страницы Hypernova.ru/sitemap

Погода в Кудымкаре - сегодня

Время (UTC), дата Ветер
(°,м/с) 
Видим.   Явления Облачность Т
(°С)
Тd
(°С)
f(%) Тe
(°С)
Pmin
(гПа)
dP
(гПа)
Po
(мм)
O2
(г/м3)
Тmin Tmax R s Состояние
почвы
21 15.04.18 340 (С) 20000 м    ясно 
-2.9 -9.1 62 -4  1015.8  0.6  744  304           
00 16.04.18 310 (СЗ) 20000 м    8/0 верхняя 
[Cs]
-5 -9.7 70 -6  1016.5  0.4  745  307           
03 16.04.18 320 (СЗ) 20000 м    4/0 верхняя 
[Cs]
-3.5 -9.1 65 -6  1017  0.7  745  305  -5.8      18  мокрый или
старый снег
50-90% 
06 16.04.18 320 (СЗ) 5{10}  20000 м    1/0 верхняя 
[Ci fib]
+0.3 -9.9 46 -3  1016.7  745  301           
18 16.04.18 290 (З) 20000 м    8/6 600 м средняя 
[Sc diur, vesp|Ac trans]
-1 -9.9 51 1017.2  0.3  745  302           
00 17.04.18 290 (З) 20000 м    1/0 верхняя 
[Ci fib]
-5.1 -6.7 89 -5  1019.2  0.7  747  307           
03 17.04.18 300 (СЗ) 20000 м    9/5 600 м средняя 
[Sc|Ac trans]
-2.8 -5.5 82 -2  1019.9  0.9  747  305  -5.4      12  мокрый или
старый снег
50-90% 
06 17.04.18 130 (ЮВ) 20000 м    9/5 300 м средняя, верхняя 
[Sc|Ac trans|Ci fib]
+1.4 -8.7 47 +2  1020.2  0.6  748  301           
09 17.04.18 320 (СЗ) 20000 м    9/6 300 м средняя, верхняя 
[Sc|Ac trans|Ci fib]
+2.9 -8.6 42 +2  1019.4  -0.6  747  299           
12 17.04.18 170 (Ю) 20000 м    8/8 600 м кучево-дожд., верхняя 
[Cb cap|Cc]
+2.7 -6.6 50 +3  1019.6  0.2  747  299           
18 17.04.18 040 (СВ) 20000 м    3/1 600 м верхняя 
[Cu hum|Ci fib]
-2.4 -6.6 73 -2  1020.8  0.9  748  305           
21 17.04.18 060 (СВ) 20000 м    ясно 
-3.3 -8.6 67 -3  1021.9  749  306           
00 18.04.18 070 (В) 20000 м    ясно 
-7.7 -10.1 83 -7  1023.3  749  312           
03 18.04.18 090 (В) 20000 м    ясно 
-3 -10.6 56 -3  1023.2  0.4  750  306  -8.7      10  мокрый или
старый снег
10-40% 
06 18.04.18 150 (ЮВ) 20000 м    1/0 верхняя 
[Ci fib]
+2.1 -13.1 31 +3  1023.1  0.3  750  301           
09 18.04.18 180 (Ю) 20000 м    3/0 верхняя 
[Cs]
+5.5 -12.4 26 +6  1021.2  -1.6  749  297           
12 18.04.18 190 (Ю) 20000 м    3/0 верхняя 
[Cs]
+7.4 -11.8 24 +7  1019  -2  747  294           
18 18.04.18 200 (Ю) 20000 м    6/0 верхняя 
[Cs]
+1.6 -10.8 39 +1  1016.6  -0.9  745  299           
21 18.04.18 210 (ЮЗ) 20000 м    ясно 
-1.1 -9.7 52 -1  1015.2  -1.5  744  302           
00 19.04.18 200 (Ю) 20000 м    ясно 
-3.1 -8.7 65 -3  1013.7  -1.7  743  304           
03 19.04.18 200 (Ю) 20000 м    ясно 
+0.3 -8 54 +1  1011.7  -1.7  741  299  -3.4      мокрый или
старый снег
10-40% 
06 19.04.18 170 (Ю) 20000 м    ясно 
+8.9 -6.4 33 +10  1009.3  -1.6  740  289           
09 19.04.18 240 (ЮЗ) 20000 м    ясно 
+11.4 -7.3 26 +12  1007  -2.1  739  286           
12 19.04.18 240 (ЮЗ) 20000 м    ясно 
+13 -7.7 23 +13  1004.7  -1.9  737  284           
15 19.04.18 290 (З) 20000 м    3/0 верхняя 
[Cs]
+11.4 -8 25 +13  1003.4  -1.4  736  285           
Время (UTC), дата Ветер
(°,м/с) 
Видим.   Явления Облачность Т
(°С)
Тd
(°С)
f(%) Тe
(°С)
Pmin
(гПа)
dP
(гПа)
Po
(мм)
O2
(г/м3)
Тmin Tmax R s Состояние
почвы

Для получения пояснительной информации подведите курсор к названию столбца.

ПОГОДА в Кудымкаре - архив

Всё, что Вы хотите узнать о погоде в Кудымкаре - удобно и подробно!

Выберите нужную дату (начиная с 1 января 2015* года) и нажмите кнопку "Найти".
Будут отображены архивные сводки погоды по пункту Кудымкар, начиная с указанной даты.


Отображать данные в формате CSV (для использования в таблицах Excel)


Внимание! Наш архив погоды предназначен исключительно для личного некоммерческого использования в познавательных целях. Если Вам необходимы официальные справки о состоянии погоды (для производственных, юридических, коммерческих и т.п. целей), обращайтесь в органы Росгидромета.

*Примечание: данная дата относится к архиву по метеостанциям СССР (Россия, СНГ, Балтия).
Архив по метеостанциям Зарубежной Европы и Азии (кроме Китая) хранится 10 дней, по другим регионам земного шара (Китай, Африка, Америка, Австралия, Океания) - 1 день.

Кудымкар - район местоположения метеостанции


Название, широта, долгота, высота метеостанции:
Кудымкар 59°ш. 54.6°д. 186 м над ур. моря [Российская Федерация]

Дополнительная информация

В oтличие oт бoльшинства пoгoдных сайтoв мы публикуем пoдрoбную метеoинфoрмацию в детальнoм прoфессиoнальнoм фoрмате.

Характеристики температуры и влажнoсти вoздуха измеряются на высoте 2 м в тени вдали oт зданий и деревьев.
Скoрoсть ветра измеряется на высoте 10 м (на урoвне рoста челoвека скoрoсть ветра ниже в 1.5-2 раза). Если метеoстанция нахoдится в гoрoде или в лесу, тo скoрoсть ветра занижена на 2-4 м/с пo сравнению с oткрытым местoм. Скoрoсть ветра над акватoриями крупных рек и oзёр, а также на вершинах хoлмoв на 2-5 м/с выше, чем в oбычных услoвиях.
Атмoсфернoе давление в разных тoчках местнoсти мoжет значительнo oтличаться oт давления на метеoстанции, в зависимoсти oт услoвий рельефа (при пoдъёме на 10 м давление пoнижается примернo на 1 мм рт.ст.).